This demonstration page uses our WeatherBlox Daily Observations layout. Learn more.

Left ArrowRight Arrow

39.51506, -84.39828

Hourly Observations for February 6, 2020

Temp ( °F °C ) Dew Point ( °F °C ) Humidity (%) Winds ( mph kmh ) Pressure ( in mb ) Visibility ( mi km ) Precip ( " mm )
12:15 am 00:15 Cloudy with Mist and Fog 32 0.1 31 -0.3 97 97 NE 8 13 29.65 1004 5 8.0467 0 0
12:35 am 00:35 Cloudy 32 0.1 31 -0.3 97 97 NNE 8 13 29.65 1004 10 16.0934 0 0
12:55 am 00:55 Cloudy 33 0.3 32 -0.2 96 96 NE 7 11 29.65 1004 10 16.0934 0 0
1:15 am 01:15 Cloudy 33 0.3 31 -0.4 95 95 NE 5 7 29.65 1004 10 16.0934 0 0
1:35 am 01:35 Cloudy with Mist and Fog 33 0.3 31 -0.4 95 95 NNE 8 13 29.64 1004 7 11.26538 0 0
1:55 am 01:55 Cloudy with Mist and Fog 32 0.2 31 -0.3 96 96 N 7 11 29.65 1004 3.5 5.63269 0 0
2:15 am 02:15 Cloudy with Mist and Fog 33 0.3 32 -0.1 97 97 N 5 7 29.67 1005 4 6.43736 0 0
2:35 am 02:35 Cloudy with Mist and Fog 32 0.1 31 -0.3 97 97 N 7 11 29.66 1005 2.5 4.02335 0 0
2:55 am 02:55 Cloudy with Mist and Fog 32 0.1 31 -0.3 97 97 N 7 11 29.66 1005 2.5 4.02335 0 0
3:15 am 03:15 Cloudy with Mist and Fog 32 0 31 -0.4 97 97 NNE 8 13 29.65 1004 3.5 5.63269 0 0
3:35 am 03:35 Cloudy with Mist and Fog 32 0.1 31 -0.4 96 96 NNE 7 11 29.64 1004 5 8.0467 0 0
3:55 am 03:55 Cloudy with Mist and Fog 32 0.1 31 -0.4 96 96 NNE 6 9 29.65 1004 3.5 5.63269 0 0
4:15 am 04:15 Cloudy with Mist and Fog 32 0 31 -0.4 97 97 N 3 6 29.64 1004 4 6.43736 0 0
4:35 am 04:35 Cloudy with Mist and Fog 32 0 31 -0.4 97 97 NNE 7 11 29.63 1004 5 8.0467 0 0
4:55 am 04:55 Cloudy with Mist and Fog 32 0 31 -0.4 97 97 N 7 11 29.62 1003 5 8.0467 0 0
5:15 am 05:15 Cloudy with Mist and Fog 32 0 31 -0.4 97 97 NNE 10 17 29.59 1002 4 6.43736 0 0
5:35 am 05:35 Cloudy 32 -0.1 31 -0.6 96 96 N 10 17 29.6 1003 7 11.26538 0 0
5:55 am 05:55 Cloudy 32 -0.1 31 -0.7 96 96 NNE 10 17 29.59 1002 10 16.0934 0 0
6:15 am 06:15 Cloudy 32 -0.2 31 -0.8 96 96 N 9 15 29.6 1002 7 11.26538 0 0
6:35 am 06:35 Cloudy 32 -0.2 31 -0.7 96 96 NNE 12 19 29.58 1002 10 16.0934 0 0
6:55 am 06:55 Cloudy 32 -0.2 30 -0.9 95 95 NNE 9 15 29.59 1002 10 16.0934 0 0
7:15 am 07:15 Cloudy 32 -0.1 31 -0.7 96 96 NNE 8 13 29.57 1002 10 16.0934 0 0
7:35 am 07:35 Cloudy 32 -0.2 31 -0.8 96 96 N 8 13 29.58 1002 10 16.0934 0 0
7:55 am 07:55 Cloudy 32 -0.1 31 -0.7 96 96 N 6 9 29.57 1002 10 16.0934 0 0
8:15 am 08:15 Cloudy 32 -0.1 31 -0.7 96 96 N 6 9 29.57 1002 7 11.26538 0 0
8:35 am 08:35 Cloudy 32 0 31 -0.6 96 96 NNW 5 7 29.6 1003 7 11.26538 0 0
8:55 am 08:55 Cloudy 32 0.1 31 -0.6 95 95 NW 5 7 29.63 1004 7 11.26538 0 0
9:15 am 09:15 Cloudy with Mist and Fog 32 0 31 -0.6 96 96 NNW 6 9 29.6 1003 4 6.43736 0 0
9:35 am 09:35 Cloudy with Mist and Fog 32 0 31 -0.6 96 96 NNW 5 7 29.61 1003 3.5 5.63269 0 0
9:55 am 09:55 Cloudy with Mist and Fog 32 0.1 31 -0.5 96 96 NW 7 11 29.65 1004 3 4.82802 0 0
10:15 am 10:15 Cloudy with Light Snow 31 -0.3 30 -1 95 95 NNW 10 17 29.63 1003 2 3.21868 0 0
10:35 am 10:35 Cloudy with Light Snow 31 -0.3 30 -1 95 95 N 8 13 29.6 1002 5 8.0467 0 0
10:55 am 10:55 Cloudy 31 -0.3 30 -1 95 95 N 10 17 29.6 1002 10 16.0934 0 0
11:15 am 11:15 Cloudy 31 -0.4 30 -1.2 94 94 NNE 10 17 29.58 1002 10 16.0934 0 0
11:35 am 11:35 Cloudy 31 -0.5 29 -1.5 93 93 NNE 8 13 29.57 1001 10 16.0934 0 0
11:55 am 11:55 Cloudy 31 -0.4 29 -1.5 92 92 NE 10 17 29.55 1001 10 16.0934 0 0
12:15 pm 12:15 Cloudy 31 -0.3 30 -1.1 94 94 NE 10 17 29.52 999 10 16.0934 0 0
12:35 pm 12:35 Cloudy 32 -0.2 30 -0.9 95 95 ENE 9 15 29.5 999 10 16.0934 0 0
12:55 pm 12:55 Cloudy 32 -0.2 30 -1 94 94 NNE 6 9 29.52 999 10 16.0934 0 0
1:15 pm 13:15 Cloudy 32 0 30 -1.1 92 92 N 6 9 29.5 999 10 16.0934 0 0
1:35 pm 13:35 Cloudy 32 0.1 30 -1 92 92 N 6 9 29.48 998 10 16.0934 0 0
1:55 pm 13:55 Cloudy 32 0 30 -1.1 92 92 NNW 8 13 29.49 999 10 16.0934 0 0
2:15 pm 14:15 Cloudy 32 -0.1 30 -1.1 93 93 N 8 13 29.5 999 10 16.0934 0 0
2:35 pm 14:35 Cloudy 31 -0.3 30 -1.2 94 94 NNW 9 15 29.49 998 10 16.0934 0 0
2:55 pm 14:55 Cloudy 31 -0.4 30 -1.3 94 94 NW 10 17 29.49 998 10 16.0934 0 0
3:15 pm 15:15 Cloudy with Light Rain 31 -0.3 30 -1.3 93 93 N 9 15 29.5 999 10 16.0934 0 0
3:35 pm 15:35 Cloudy with Drizzle 31 -0.4 29 -1.4 93 93 NW 8 13 29.52 1000 10 16.0934 0 0
3:55 pm 15:55 Cloudy with Light Rain 31 -0.4 29 -1.4 93 93 NNW 7 11 29.52 1000 7 11.26538 0 0
4:15 pm 16:15 Cloudy with Light Snow 31 -0.5 29 -1.4 94 94 NNW 6 9 29.52 1000 4 6.43736 0 0
4:35 pm 16:35 Cloudy with Light Snow 31 -0.6 29 -1.4 94 94 NNW 7 11 29.53 1000 1.5 2.41401 0 0
4:55 pm 16:55 Cloudy with Light Snow 31 -0.6 30 -1.3 95 95 NNW 5 7 29.52 1000 1.25 2.011675 0 0
5:15 pm 17:15 Cloudy with Light Rain 31 -0.6 30 -1.2 96 96 N 6 9 29.52 1000 3.5 5.63269 0 0
5:35 pm 17:35 Cloudy with Light Rain 31 -0.6 29 -1.4 94 94 N 7 11 29.52 1000 5 8.0467 0 0
5:55 pm 17:55 Cloudy with Light Snow 31 -0.6 29 -1.6 93 93 N 10 17 29.52 1000 4 6.43736 0 0
6:15 pm 18:15 Cloudy with Light Snow 30 -1 28 -2.5 90 90 N 10 17 29.53 1000 7 11.26538 0 0
6:35 pm 18:35 Cloudy 30 -1.2 27 -2.8 89 89 N 9 15 29.52 1000 10 16.0934 0 0
6:55 pm 18:55 Cloudy 30 -1.2 27 -2.6 90 90 N 7 11 29.53 1000 10 16.0934 0 0
7:15 pm 19:15 Cloudy 30 -1.3 27 -2.7 90 90 N 8 13 29.53 1000 10 16.0934 0 0
7:35 pm 19:35 Cloudy with Light Snow 30 -1.3 27 -3 88 88 N 5 7 29.54 1000 10 16.0934 0 0
7:55 pm 19:55 Cloudy 29 -1.4 27 -2.8 90 90 NNW 6 9 29.51 999 10 16.0934 0 0
8:15 pm 20:15 Cloudy 29 -1.4 27 -2.8 90 90 N 5 7 29.54 1000 10 16.0934 0 0
8:35 pm 20:35 Cloudy 29 -1.4 26 -3.1 88 88 N 5 7 29.54 1000 10 16.0934 0 0
8:55 pm 20:55 Cloudy 29 -1.4 26 -3.1 88 88 NNW 7 11 29.54 1000 10 16.0934 0 0
9:15 pm 21:15 Cloudy 29 -1.4 27 -3 89 89 N 3 6 29.54 1000 10 16.0934 0 0
9:35 pm 21:35 Cloudy 29 -1.4 27 -2.9 90 90 NNW 5 7 29.53 1000 10 16.0934 0 0
9:55 pm 21:55 Cloudy 29 -1.5 26 -3.1 89 89 NNW 9 15 29.5 999 10 16.0934 0 0
10:15 pm 22:15 Cloudy 29 -1.5 26 -3.2 88 88 NNW 7 11 29.52 1000 10 16.0934 0 0
10:35 pm 22:35 Cloudy with Mist and Fog 29 -1.6 27 -3 90 90 NNW 7 11 29.5 999 7 11.26538 0 0
10:55 pm 22:55 Cloudy 29 -1.7 26 -3.3 89 89 NNW 9 15 29.51 999 7 11.26538 0 0
11:15 pm 23:15 Cloudy 29 -1.7 26 -3.3 89 89 N 8 13 29.51 999 7 11.26538 0 0
11:35 pm 23:35 Cloudy 29 -1.7 26 -3.4 88 88 NNW 8 13 29.51 999 10 16.0934 0 0
11:55 pm 23:55 Cloudy 29 -1.7 26 -3.5 88 88 N 7 11 29.51 999 10 16.0934 0 0

Powered by AerisWeather